This is the latest recevied weather packets stored in our database for station/object E25XKG-2. If no packets are shown the sender has not sent any weather packets the latest 1 day(s).
| Time | Temp. | Humidity | Pressure | Rain* | Wind** | Luminosity | Snow |
|---|---|---|---|---|---|---|---|
| 1778073654 | 40.56° C | 34% | 1000 hPa | - | - | 0 W/m² | - |
| 1778068177 | 42.22° C | 32% | 999 hPa | - | - | 0 W/m² | - |
| 1778066352 | 42.22° C | 32% | 998 hPa | - | - | 0 W/m² | - |
| 1778062701 | 42.22° C | 31% | 998 hPa | - | - | 0 W/m² | - |
| 1778059050 | 41.11° C | 33% | 999 hPa | - | - | 0 W/m² | - |
| 1778055399 | 40.56° C | 35% | 999 hPa | - | - | 0 W/m² | - |
| 1778053574 | 40.56° C | 36% | 1000 hPa | - | - | 0 W/m² | - |
| 1778051748 | 40° C | 37% | 1000 hPa | - | - | 0 W/m² | - |
| 1778049923 | 38.89° C | 38% | 1001 hPa | - | - | 0 W/m² | - |
| 1778044443 | 37.22° C | 42% | 1003 hPa | - | - | 0 W/m² | - |
| 1778040792 | 36.11° C | 44% | 1004 hPa | - | - | 0 W/m² | - |
| 1778038967 | 35.56° C | 46% | 1004 hPa | - | - | 0 W/m² | - |
| 1778037141 | 35° C | 46% | 1004 hPa | - | - | 0 W/m² | - |
| 1778035316 | 34.44° C | 46% | 1004 hPa | - | - | 0 W/m² | - |
| 1778033490 | 34.44° C | 47% | 1004 hPa | - | - | 0 W/m² | - |
| 1778031665 | 33.89° C | 46% | 1004 hPa | - | - | 0 W/m² | - |
| 1778029839 | 33.89° C | 46% | 1004 hPa | - | - | 0 W/m² | - |
| 1778028014 | 33.33° C | 46% | 1004 hPa | - | - | 0 W/m² | - |
| 1778007933 | 35.56° C | 42% | 1002 hPa | - | - | 0 W/m² | - |
| 1778004282 | 36.11° C | 41% | 1003 hPa | - | - | 0 W/m² | - |
| 1777996980 | 37.22° C | 39% | 1004 hPa | - | - | 0 W/m² | - |
* Rain since midnight (hover to see other rain measurements)
** Current wind speed in m/s (hover to see current wind gust speed)